• In Portugal
  • List of Countries
  • For 7 days
  • Water Temperature
  • Satellite Maps
  • Weather Map
  • Weather Widgets
  • user-avatar
    Login

    Hourly Weather Banfora

    Today, 21 November, Tuesday

    Time Temperature Precipitation Wind Pressure Humidity
    00:00 +29°C° 0.4 mm 1 mps 732 mmHg 59%
    01:00 +29°C° 0.3 mm 1 mps 732 mmHg 64%
    02:00 +28°C° 0.3 mm 1 mps 732 mmHg 68%
    03:00 +27°C° 0.3 mm 1 mps 732 mmHg 72%
    04:00 +27°C° 0.1 mm 1 mps 732 mmHg 73%
    05:00 +27°C° 0.1 mm 1 mps 732 mmHg 75%
    06:00 +27°C° 0.1 mm 1 mps 732 mmHg 76%
    07:00 +28°C° 0 mm 1 mps 733 mmHg 71%
    08:00 +29°C° 0 mm 1 mps 733 mmHg 66%
    09:00 +31°C° 0 mm 2 mps 734 mmHg 61%
    10:00 +33°C° 0 mm 1 mps 734 mmHg 53%
    11:00 +35°C° 0 mm 1 mps 733 mmHg 45%
    12:00 +35°C° 0 mm 0 mps 733 mmHg 37%
    13:00 +37°C° 0 mm 1 mps 732 mmHg 35%
    14:00 +37°C° 0 mm 1 mps 732 mmHg 33%
    15:00 +38°C° 0 mm 2 mps 731 mmHg 31%
    16:00 +36°C° 0 mm 1 mps 731 mmHg 33%
    17:00 +35°C° 0 mm 1 mps 731 mmHg 35%
    18:00 +34°C° 0 mm 1 mps 731 mmHg 37%
    19:00 +33°C° 0 mm 1 mps 731 mmHg 38%
    20:00 +32°C° 0 mm 1 mps 732 mmHg 39%
    21:00 +32°C° 0 mm 1 mps 732 mmHg 40%
    22:00 +31°C° 0 mm 1 mps 732 mmHg 40%
    23:00 +29°C° 0 mm 0 mps 732 mmHg 41%

    Tomorrow, 22 November, Wednesday

    Time Temperature Precipitation Wind Pressure Humidity
    00:00 +28°C° 0 mm 0 mps 732 mmHg 41%
    01:00 +28°C° 0 mm 0 mps 732 mmHg 41%
    02:00 +27°C° 0 mm 0 mps 732 mmHg 42%
    03:00 +27°C° 0 mm 0 mps 731 mmHg 43%
    04:00 +29°C° 0 mm 1 mps 731 mmHg 43%
    05:00 +28°C° 0 mm 1 mps 731 mmHg 44%
    06:00 +28°C° 0 mm 1 mps 732 mmHg 44%
    07:00 +29°C° 0 mm 1 mps 732 mmHg 41%
    08:00 +31°C° 0 mm 1 mps 733 mmHg 39%
    09:00 +32°C° 0 mm 1 mps 733 mmHg 36%
    10:00 +35°C° 0 mm 1 mps 733 mmHg 30%
    11:00 +38°C° 0 mm 2 mps 732 mmHg 23%
    12:00 +40°C° 0 mm 2 mps 732 mmHg 16%
    13:00 +41°C° 0 mm 2 mps 731 mmHg 15%
    14:00 +41°C° 0 mm 2 mps 730 mmHg 14%
    15:00 +41°C° 0 mm 2 mps 730 mmHg 12%
    16:00 +39°C° 0 mm 2 mps 729 mmHg 14%
    17:00 +36°C° 0 mm 1 mps 729 mmHg 15%
    18:00 +35°C° 0 mm 1 mps 729 mmHg 17%
    19:00 +34°C° 0 mm 1 mps 730 mmHg 17%
    20:00 +32°C° 0 mm 1 mps 731 mmHg 18%
    21:00 +31°C° 0 mm 1 mps 731 mmHg 19%
    22:00 +31°C° 0 mm 1 mps 731 mmHg 20%
    23:00 +30°C° 0 mm 1 mps 731 mmHg 21%

    Day after tomorrow, 23 November, Thursday

    Time Temperature Precipitation Wind Pressure Humidity
    00:00 +30°C° 0 mm 1 mps 731 mmHg 22%
    01:00 +29°C° 0 mm 1 mps 731 mmHg 30%
    02:00 +28°C° 0 mm 2 mps 731 mmHg 39%
    03:00 +28°C° 0 mm 2 mps 731 mmHg 48%
    04:00 +27°C° 0 mm 2 mps 731 mmHg 58%
    05:00 +27°C° 0 mm 2 mps 731 mmHg 68%
    06:00 +26°C° 0 mm 2 mps 732 mmHg 79%
    07:00 +28°C° 0 mm 2 mps 732 mmHg 74%
    08:00 +29°C° 0 mm 2 mps 733 mmHg 69%
    09:00 +30°C° 0 mm 3 mps 734 mmHg 64%
    10:00 +34°C° 0 mm 2 mps 733 mmHg 55%
    11:00 +36°C° 0 mm 2 mps 733 mmHg 46%
    12:00 +38°C° 0 mm 2 mps 733 mmHg 36%
    13:00 +39°C° 0 mm 1 mps 732 mmHg 32%
    14:00 +40°C° 0 mm 1 mps 731 mmHg 28%
    15:00 +38°C° 0 mm 0 mps 731 mmHg 24%
    16:00 +36°C° 0 mm 0 mps 731 mmHg 27%
    17:00 +34°C° 0 mm 0 mps 731 mmHg 29%
    18:00 +32°C° 0 mm 0 mps 731 mmHg 31%
    19:00 +34°C° 0 mm 1 mps 731 mmHg 33%
    20:00 +33°C° 0 mm 1 mps 732 mmHg 35%
    21:00 +32°C° 0 mm 1 mps 732 mmHg 37%
    22:00 +32°C° 0 mm 1 mps 732 mmHg 39%
    23:00 +31°C° 0 mm 1 mps 732 mmHg 42%

    24 November, Friday

    Time Temperature Precipitation Wind Pressure Humidity
    00:00 +31°C° 0 mm 1 mps 732 mmHg 45%
    01:00 +30°C° 0 mm 1 mps 732 mmHg 51%
    02:00 +29°C° 0 mm 2 mps 732 mmHg 56%
    03:00 +28°C° 0 mm 2 mps 731 mmHg 61%
    04:00 +28°C° 0 mm 2 mps 732 mmHg 65%
    05:00 +27°C° 0 mm 1 mps 732 mmHg 69%
    06:00 +27°C° 0 mm 1 mps 732 mmHg 73%
    07:00 +28°C° 0 mm 2 mps 733 mmHg 68%
    08:00 +30°C° 0 mm 2 mps 733 mmHg 63%
    09:00 +31°C° 0 mm 2 mps 734 mmHg 59%
    10:00 +34°C° 0 mm 2 mps 733 mmHg 49%
    11:00 +37°C° 0 mm 2 mps 733 mmHg 40%
    12:00 +39°C° 0 mm 1 mps 733 mmHg 30%
    13:00 +40°C° 0 mm 1 mps 732 mmHg 27%
    14:00 +41°C° 0 mm 1 mps 731 mmHg 24%
    15:00 +39°C° 0 mm 0 mps 731 mmHg 20%
    16:00 +37°C° 0 mm 0 mps 731 mmHg 22%
    17:00 +37°C° 0 mm 1 mps 731 mmHg 24%
    18:00 +35°C° 0 mm 1 mps 731 mmHg 26%
    19:00 +34°C° 0 mm 1 mps 731 mmHg 27%
    20:00 +34°C° 0 mm 1 mps 732 mmHg 28%
    21:00 +33°C° 0 mm 1 mps 732 mmHg 29%
    22:00 +32°C° 0 mm 1 mps 732 mmHg 31%
    23:00 +31°C° 0 mm 1 mps 732 mmHg 33%

    25 November, Saturday

    Time Temperature Precipitation Wind Pressure Humidity
    00:00 +31°C° 0 mm 1 mps 732 mmHg 34%
    01:00 +30°C° 0 mm 2 mps 732 mmHg 42%
    02:00 +29°C° 0 mm 2 mps 732 mmHg 49%
    03:00 +28°C° 0 mm 2 mps 732 mmHg 57%
    04:00 +28°C° 0 mm 2 mps 732 mmHg 61%
    05:00 +27°C° 0 mm 2 mps 732 mmHg 66%
    06:00 +27°C° 0 mm 2 mps 732 mmHg 71%
    07:00 +28°C° 0 mm 2 mps 733 mmHg 66%
    08:00 +30°C° 0 mm 2 mps 733 mmHg 60%
    09:00 +31°C° 0 mm 3 mps 734 mmHg 55%
    10:00 +34°C° 0 mm 2 mps 733 mmHg 48%
    11:00 +37°C° 0 mm 2 mps 733 mmHg 40%
    12:00 +39°C° 0 mm 1 mps 733 mmHg 33%
    13:00 +39°C° 0 mm 1 mps 732 mmHg 31%
    14:00 +39°C° 0 mm 1 mps 731 mmHg 30%
    15:00 +36°C° 0 mm 0 mps 730 mmHg 28%
    16:00 +35°C° 0 mm 0 mps 731 mmHg 30%
    17:00 +35°C° 0 mm 1 mps 731 mmHg 33%
    18:00 +34°C° 0 mm 1 mps 731 mmHg 35%
    19:00 +33°C° 0 mm 1 mps 731 mmHg 37%
    20:00 +33°C° 0 mm 1 mps 732 mmHg 40%
    21:00 +32°C° 0 mm 1 mps 732 mmHg 42%
    22:00 +31°C° 0 mm 1 mps 732 mmHg 44%
    23:00 +30°C° 0 mm 1 mps 732 mmHg 46%

    26 November, Sunday

    Time Temperature Precipitation Wind Pressure Humidity
    00:00 +30°C° 0 mm 1 mps 732 mmHg 48%
    01:00 +27°C° 0 mm 0 mps 732 mmHg 50%
    02:00 +27°C° 0 mm 0 mps 732 mmHg 52%
    03:00 +26°C° 0 mm 0 mps 732 mmHg 53%
    04:00 +26°C° 0 mm 0 mps 732 mmHg 56%
    05:00 +25°C° 0 mm 0 mps 732 mmHg 59%
    06:00 +27°C° 0 mm 1 mps 733 mmHg 61%
    07:00 +29°C° 0 mm 1 mps 733 mmHg 57%
    08:00 +30°C° 0 mm 1 mps 734 mmHg 53%
    09:00 +32°C° 0 mm 1 mps 734 mmHg 49%
    10:00 +34°C° 0 mm 1 mps 734 mmHg 42%
    11:00 +36°C° 0 mm 1 mps 734 mmHg 34%
    12:00 +39°C° 0 mm 1 mps 733 mmHg 27%
    13:00 +39°C° 0 mm 2 mps 733 mmHg 24%
    14:00 +39°C° 0 mm 2 mps 732 mmHg 21%
    15:00 +39°C° 0 mm 2 mps 731 mmHg 19%
    16:00 +38°C° 0 mm 2 mps 731 mmHg 19%
    17:00 +36°C° 0 mm 2 mps 731 mmHg 18%
    18:00 +34°C° 0 mm 1 mps 732 mmHg 18%
    19:00 +33°C° 0 mm 1 mps 732 mmHg 18%
    20:00 +32°C° 0 mm 1 mps 732 mmHg 17%
    21:00 +31°C° 0 mm 1 mps 733 mmHg 16%
    22:00 +30°C° 0 mm 1 mps 733 mmHg 17%
    23:00 +29°C° 0 mm 1 mps 733 mmHg 18%
    Show more